Location: Cudham
(51.3000°N, 0.0667°E)
Time: 19:40:52
(UTC+00:00)

Cosmos 1125 Rocket - Pass Details

Date: 19 May 2025
Orbit: 753 x 776 km, 74.0° (Epoch: 22 June)

Event Time Altitude Azimuth Distance (km) Brightness Sun altitude
Rises 21:01:24 0° 334° (NNW) 3,269 8.5 -9.1°
Reaches altitude 10° 21:03:48 10° 333° (NNW) 2,337 7.5 -9.3°
Maximum altitude 21:09:07 79° 249° (WSW) 796 3.6 -9.9°
Enters shadow 21:14:07 12° 163° (SSE) 2,211 5.3 -10.4°
